• In Kazakhstan
  • List of Countries
  • For 7 days
  • Water Temperature
  • Satellite Maps
  • Weather Map
  • News
  • Weather Widgets
  • user-avatar
    Login

    Hourly Weather San Juan

    Today, 21 January, Monday

    Time Temperature Precipitation Wind Pressure Humidity
    00:00 +29°C° 0 mm 1 mps 704 mmHg 36%
    01:00 +29°C° 0 mm 1 mps 704 mmHg 41%
    02:00 +28°C° 0 mm 1 mps 704 mmHg 44%
    03:00 +27°C° 0 mm 1 mps 704 mmHg 46%
    04:00 +27°C° 0 mm 1 mps 704 mmHg 48%
    05:00 +28°C° 0 mm 2 mps 705 mmHg 46%
    06:00 +29°C° 0 mm 3 mps 706 mmHg 44%
    07:00 +32°C° 0 mm 5 mps 706 mmHg 38%
    08:00 +32°C° 0 mm 6 mps 706 mmHg 37%
    09:00 +33°C° 0 mm 6 mps 706 mmHg 36%
    10:00 +34°C° 0 mm 7 mps 706 mmHg 34%
    11:00 +35°C° 0 mm 6 mps 705 mmHg 32%
    12:00 +36°C° 0 mm 6 mps 705 mmHg 30%
    13:00 +36°C° 0 mm 5 mps 704 mmHg 28%
    14:00 +37°C° 0 mm 5 mps 704 mmHg 27%
    15:00 +37°C° 0 mm 4 mps 703 mmHg 26%
    16:00 +37°C° 0 mm 3 mps 703 mmHg 24%
    17:00 +36°C° 0 mm 3 mps 703 mmHg 26%
    18:00 +35°C° 0 mm 2 mps 703 mmHg 28%
    19:00 +34°C° 0 mm 2 mps 704 mmHg 29%
    20:00 +32°C° 0 mm 2 mps 704 mmHg 31%
    21:00 +32°C° 0 mm 2 mps 704 mmHg 32%
    22:00 +31°C° 0 mm 2 mps 705 mmHg 34%
    23:00 +30°C° 0 mm 2 mps 704 mmHg 35%

    Tomorrow, 22 January, Tuesday

    Time Temperature Precipitation Wind Pressure Humidity
    00:00 +30°C° 0 mm 3 mps 704 mmHg 37%
    01:00 +29°C° 0 mm 3 mps 704 mmHg 39%
    02:00 +29°C° 0 mm 3 mps 704 mmHg 42%
    03:00 +29°C° 0 mm 3 mps 703 mmHg 46%
    04:00 +28°C° 0 mm 3 mps 703 mmHg 50%
    05:00 +29°C° 0 mm 3 mps 703 mmHg 47%
    06:00 +30°C° 0 mm 3 mps 704 mmHg 44%
    07:00 +31°C° 0 mm 3 mps 704 mmHg 42%
    08:00 +34°C° 0 mm 3 mps 704 mmHg 38%
    09:00 +35°C° 0 mm 2 mps 704 mmHg 35%
    10:00 +36°C° 0 mm 2 mps 704 mmHg 32%
    11:00 +38°C° 0 mm 3 mps 704 mmHg 29%
    12:00 +40°C° 0 mm 4 mps 703 mmHg 26%
    13:00 +41°C° 0 mm 4 mps 703 mmHg 24%
    14:00 +41°C° 0 mm 4 mps 703 mmHg 23%
    15:00 +41°C° 0 mm 5 mps 702 mmHg 23%
    16:00 +42°C° 0 mm 5 mps 702 mmHg 22%
    17:00 +41°C° 0 mm 4 mps 703 mmHg 24%
    18:00 +39°C° 0 mm 3 mps 703 mmHg 26%
    19:00 +38°C° 0 mm 3 mps 704 mmHg 28%
    20:00 +37°C° 0.1 mm 3 mps 704 mmHg 29%
    21:00 +36°C° 0.1 mm 2 mps 705 mmHg 31%
    22:00 +35°C° 0.1 mm 2 mps 705 mmHg 32%
    23:00 +34°C° 0.1 mm 2 mps 705 mmHg 35%

    Day after tomorrow, 23 January, Wednesday

    Time Temperature Precipitation Wind Pressure Humidity
    00:00 +33°C° 0.1 mm 1 mps 705 mmHg 37%
    01:00 +32°C° 0.1 mm 1 mps 705 mmHg 40%
    02:00 +31°C° 0 mm 3 mps 705 mmHg 42%
    03:00 +30°C° 0 mm 4 mps 705 mmHg 44%
    04:00 +29°C° 0 mm 6 mps 705 mmHg 46%
    05:00 +29°C° 0 mm 6 mps 706 mmHg 43%
    06:00 +29°C° 0 mm 5 mps 706 mmHg 40%
    07:00 +29°C° 0 mm 5 mps 706 mmHg 37%
    08:00 +32°C° 0 mm 5 mps 706 mmHg 35%
    09:00 +33°C° 0 mm 5 mps 706 mmHg 33%
    10:00 +35°C° 0 mm 5 mps 706 mmHg 30%
    11:00 +36°C° 0 mm 4 mps 706 mmHg 29%
    12:00 +37°C° 0 mm 4 mps 705 mmHg 27%
    13:00 +38°C° 0 mm 3 mps 704 mmHg 26%
    14:00 +38°C° 0 mm 3 mps 704 mmHg 25%
    15:00 +38°C° 0 mm 3 mps 703 mmHg 25%
    16:00 +39°C° 0 mm 3 mps 703 mmHg 24%
    17:00 +38°C° 0.1 mm 3 mps 703 mmHg 26%
    18:00 +37°C° 0.1 mm 3 mps 704 mmHg 27%
    19:00 +36°C° 0.1 mm 3 mps 704 mmHg 29%
    20:00 +35°C° 0 mm 3 mps 704 mmHg 30%
    21:00 +35°C° 0 mm 2 mps 705 mmHg 32%
    22:00 +34°C° 0 mm 2 mps 705 mmHg 33%
    23:00 +34°C° 0.1 mm 2 mps 705 mmHg 34%

    24 January, Thursday

    Time Temperature Precipitation Wind Pressure Humidity
    00:00 +32°C° 0.1 mm 2 mps 704 mmHg 35%
    01:00 +32°C° 0.1 mm 2 mps 704 mmHg 36%
    02:00 +32°C° 0.1 mm 2 mps 704 mmHg 38%
    03:00 +31°C° 0.1 mm 1 mps 704 mmHg 40%
    04:00 +31°C° 0.1 mm 1 mps 703 mmHg 42%
    05:00 +31°C° 0 mm 2 mps 704 mmHg 44%
    06:00 +33°C° 0 mm 4 mps 704 mmHg 45%
    07:00 +34°C° 0 mm 5 mps 704 mmHg 46%
    08:00 +35°C° 0 mm 5 mps 704 mmHg 44%
    09:00 +36°C° 0 mm 4 mps 704 mmHg 41%
    10:00 +38°C° 0 mm 4 mps 703 mmHg 38%
    11:00 +40°C° 0 mm 4 mps 703 mmHg 35%
    12:00 +41°C° 0 mm 4 mps 702 mmHg 31%
    13:00 +42°C° 0 mm 4 mps 701 mmHg 27%
    14:00 +43°C° 0 mm 3 mps 701 mmHg 26%
    15:00 +43°C° 0 mm 3 mps 701 mmHg 24%
    16:00 +42°C° 0 mm 2 mps 700 mmHg 23%
    17:00 +41°C° 0.2 mm 2 mps 701 mmHg 25%
    18:00 +41°C° 0.2 mm 2 mps 701 mmHg 26%
    19:00 +40°C° 0.2 mm 2 mps 701 mmHg 28%
    20:00 +39°C° 0.1 mm 3 mps 702 mmHg 30%
    21:00 +38°C° 0.1 mm 3 mps 702 mmHg 32%
    22:00 +37°C° 0.1 mm 4 mps 703 mmHg 34%
    23:00 +37°C° 0 mm 4 mps 702 mmHg 35%

    25 January, Friday

    Time Temperature Precipitation Wind Pressure Humidity
    00:00 +36°C° 0 mm 4 mps 702 mmHg 37%
    01:00 +35°C° 0 mm 3 mps 701 mmHg 39%
    02:00 +34°C° 0 mm 3 mps 701 mmHg 40%
    03:00 +34°C° 0 mm 2 mps 701 mmHg 42%
    04:00 +32°C° 0 mm 2 mps 701 mmHg 44%
    05:00 +34°C° 0 mm 2 mps 701 mmHg 41%
    06:00 +35°C° 0 mm 2 mps 702 mmHg 38%
    07:00 +35°C° 0 mm 1 mps 702 mmHg 35%
    08:00 +37°C° 0 mm 3 mps 702 mmHg 34%
    09:00 +39°C° 0 mm 5 mps 703 mmHg 33%
    10:00 +41°C° 0 mm 6 mps 703 mmHg 32%
    11:00 +41°C° 0 mm 6 mps 702 mmHg 31%
    12:00 +43°C° 0 mm 7 mps 702 mmHg 29%
    13:00 +44°C° 0 mm 7 mps 702 mmHg 28%
    14:00 +44°C° 0 mm 7 mps 702 mmHg 27%
    15:00 +44°C° 0 mm 7 mps 701 mmHg 27%
    16:00 +44°C° 0 mm 7 mps 701 mmHg 26%
    17:00 +43°C° 0.5 mm 8 mps 702 mmHg 30%
    18:00 +40°C° 0.5 mm 8 mps 702 mmHg 35%
    19:00 +38°C° 0.5 mm 8 mps 703 mmHg 39%
    20:00 +38°C° 0.9 mm 7 mps 703 mmHg 40%
    21:00 +36°C° 0.9 mm 6 mps 704 mmHg 41%
    22:00 +36°C° 0.9 mm 4 mps 704 mmHg 42%
    23:00 +35°C° 0.5 mm 5 mps 704 mmHg 45%

    26 January, Saturday

    Time Temperature Precipitation Wind Pressure Humidity
    00:00 +35°C° 0.5 mm 5 mps 704 mmHg 48%
    01:00 +34°C° 0.5 mm 5 mps 704 mmHg 50%
    02:00 +33°C° 0.5 mm 6 mps 704 mmHg 55%
    03:00 +32°C° 0.5 mm 6 mps 704 mmHg 59%
    04:00 +32°C° 0.5 mm 7 mps 703 mmHg 63%
    05:00 +32°C° 0.8 mm 8 mps 704 mmHg 62%
    06:00 +31°C° 0.8 mm 9 mps 705 mmHg 61%
    07:00 +31°C° 0.8 mm 10 mps 706 mmHg 60%
    08:00 +32°C° 0.3 mm 10 mps 706 mmHg 56%
    09:00 +32°C° 0.3 mm 10 mps 706 mmHg 51%
    10:00 +33°C° 0.3 mm 9 mps 706 mmHg 47%
    11:00 +34°C° 0 mm 8 mps 706 mmHg 42%
    12:00 +35°C° 0 mm 7 mps 706 mmHg 37%
    13:00 +37°C° 0 mm 5 mps 705 mmHg 33%
    14:00 +37°C° 0 mm 5 mps 705 mmHg 32%
    15:00 +37°C° 0 mm 4 mps 704 mmHg 32%
    16:00 +37°C° 0 mm 4 mps 703 mmHg 32%
    17:00 +36°C° 0 mm 3 mps 704 mmHg 34%
    18:00 +35°C° 0 mm 3 mps 704 mmHg 36%
    19:00 +34°C° 0 mm 2 mps 704 mmHg 38%
    20:00 +34°C° 0 mm 2 mps 704 mmHg 39%
    21:00 +32°C° 0 mm 2 mps 705 mmHg 41%
    22:00 +32°C° 0 mm 1 mps 705 mmHg 42%
    23:00 +31°C° 0 mm 1 mps 704 mmHg 43%
    Show more